Regional Weather Roundup
Issued by NWS

Home | Current Version | Previous Version | Text Only | Print | Product List | Glossary Off
Versions: 1 2 3 4 5 6 7 8 9 10 11 12 13 14 15 16 17 18 19 20 21 22 23 24 25 26 27 28 29 30 31 32 33 34 35 36 37 38 39 40 41 42 43 44 45 46 47 48 49 50

000
ASUS43 KMKX 192021
RWRWI

WISCONSIN REGIONAL WEATHER ROUNDUP
NATIONAL WEATHER SERVICE MILWAUKEE/SULLIVAN WI
300 PM CDT THU OCT 19 2017

NOTE: "FAIR" INDICATES FEW OR NO CLOUDS BELOW 12,000 FEET WITH NO
SIGNIFICANT WEATHER AND/OR OBSTRUCTIONS TO VISIBILITY.

WIZ001-002-006>008-014>016-023>028-192100-
NORTHWEST WISCONSIN

CITY           SKY/WX    TMP DP  RH WIND       PRES   REMARKS
SUPERIOR ARPT  FAIR      69  32  25 SW14G21   29.94F
ASHLAND        FAIR      70  30  22 S10       29.97F
HAYWARD        FAIR      68  32  26 S13       30.00F
SIREN          FAIR      70  30  22 S15G22    29.98F
CUMBERLAND     FAIR      68  32  26 S12G18    30.01F
RICE LAKE      FAIR      69  31  24 S13       30.03F
CHETEK         FAIR      69  35  29 SW8       30.02F
LADYSMITH      FAIR      67  33  28 S9        30.05F
EAU CLAIRE     FAIR      71  31  22 S8        30.03F
MENOMONIE      FAIR      71  32  23 S12       30.03F
NEW RICHMOND   FAIR      70  31  24 S14       30.01F
OSCEOLA        FAIR      70  34  26 S15G21    30.02F
$$

WIZ003>005-009-010-017-018-192100-
NORTH CENTRAL WISCONSIN

CITY           SKY/WX    TMP DP  RH WIND       PRES   REMARKS
MANITOWISH WTR FAIR      65  29  26 SW10      30.03F
ARBOR VITAE    FAIR      64  29  26 SW8       30.04F
WOODRUFF       FAIR      64  29  26 SW8       30.04F
RHINELANDER    FAIR      66  28  24 SW10G18   30.06F
EAGLE RIVER    FAIR      64  24  21 W6        30.04F
LAND O LAKES   FAIR      64  25  22 SW6       30.05F
PHILLIPS       FAIR      65  31  28 SW7       30.03F
TOMAHAWK       FAIR      65  27  23 CALM      30.06F
MEDFORD        FAIR      65  31  28 S10       30.07S
MERRILL        FAIR      68  31  25 W6        30.07F
$$

WIZ029-030-035-036-043>047-192100-
CENTRAL WISCONSIN

CITY           SKY/WX    TMP DP  RH WIND       PRES   REMARKS
WAUSAU         FAIR      67  29  24 W5        30.05F
MOSINEE        MOSUNNY   66  28  24 SW3       30.08F
MARSHFIELD     FAIR      69  30  23 SW10      30.06F
STEVENS POINT  FAIR      66  30  25 CALM      30.09F
WAUPACA        FAIR      71  28  20 SW6       30.09F
WAUTOMA        FAIR      71  32  23 SW8       30.09F
WISC RAPIDS    FAIR      69  36  29 S8        30.09F
CAMP DOUGLAS   MOSUNNY   72  34  25 SW6       30.08F
$$

WIZ011>013-019>022-031-037>040-048>050-192100-
NORTHEAST WISCONSIN

CITY           SKY/WX    TMP DP  RH WIND       PRES   REMARKS
ANTIGO         FAIR      63  33  32 W8        30.08F
SHAWANO        FAIR      70  28  21 W7G16     30.07F
OCONTO         FAIR      67  30  24 W15G21    30.06F
STURGEON BAY   FAIR      65  31  28 W12G20    30.08S
GREEN BAY      FAIR      67  34  29 SW8       30.08F
MANITOWOC      FAIR      66  32  28 W10       30.10F
APPLETON       SUNNY     66  27  22 SW8       30.08F
CLINTONVILLE   FAIR      68  27  21 W5        30.08F
OSHKOSH        FAIR      68  34  28 SW7       30.10F
$$

WIZ032>034-041-042-053>061-192100-
SOUTHWEST WISCONSIN

CITY           SKY/WX    TMP DP  RH WIND       PRES   REMARKS
LA CROSSE      FAIR      71  35  26 S13       30.07F
SPARTA         FAIR      70  34  26 S8        30.08F
VIROQUA        FAIR      69  35  28 S7        30.10F
BOSCOBEL       FAIR      73  31  21 VRB5      30.11F
PRAIRIE DU CHI FAIR      69  29  22 S5        30.10F
PLATTEVILLE    FAIR      70  34  26 SE9       30.13F
$$

WIZ056-057-062-063-064-067-068-192100-
SOUTH CENTRAL WISCONSIN

CITY           SKY/WX    TMP DP  RH WIND       PRES   REMARKS
REEDSBURG      FAIR      70  33  25 S6        30.10F
BARABOO/DELLS  FAIR      70  30  23 SW5       30.11F
LONE ROCK      FAIR      70  36  28 CALM      30.11F
MINERAL POINT  FAIR      72  32  23 S6        30.13F
MADISON        PTSUNNY   67  31  26 S5        30.12F
MIDDLETON      FAIR      70  33  25 E5        30.13S
WATERTOWN      FAIR      68  32  26 SW3       30.13F
MONROE         FAIR      68  30  24 S7        30.13F
JANESVILLE     PTSUNNY   70  27  19 VRB6      30.14F
$$

WIZ051-052-058>065-066-070>072-192100-
SOUTHEAST WISCONSIN

CITY           SKY/WX    TMP DP  RH WIND       PRES   REMARKS
MILWAUKEE      FAIR      66  30  26 SE13      30.14F
WAUKESHA       SUNNY     64  28  25 SW7       30.15F
MILWAUKEE/TIMM SUNNY     68  21  17 W8        30.14F
RACINE         FAIR      64  24  21 SE9       30.16F
BURLINGTON     FAIR      68  31  24 CALM      30.14F
KENOSHA        FAIR      66  29  24 SE9       30.16S
FOND DU LAC    FAIR      69  28  21 W9        30.11F
SHEBOYGAN      FAIR      68  31  25 SW7       30.11F
WEST BEND      FAIR      68  27  21 W7        30.12F
JUNEAU         FAIR      68  30  24 SW7       30.14S
$$

LSZ147-162-192100-
LAKE SUPERIOR

STATION/POSITION TIME  TEMP    WIND        PRES    WAVE
                       AIR SEA DIR/SP/G            HT/PER
                 (UTC) (F)     (DEG/KT/KT) (MB)    (FT/S)
W MID LAKE BUOY  1950   55 52              1014.8F   4/ 5
DEVILS ISLAND    2000   58     230/  7/  8 1014.8F
SAXON HARBOR     1940   69     230/  4/ 11 1014.9F
$$

LMZ867-665-643>646-192100-
LAKE MICHIGAN

STATION/POSITION TIME  TEMP    WIND        PRES    WAVE
                       AIR SEA DIR/SP/G            HT/PER
                 (UTC) (F)     (DEG/KT/KT) (MB)    (FT/S)
S GREEN BAY BUOY 1930   62 58  240/ 10/ 14 1018.1F
N MID LAKE BUOY  1950   58 58  220/ 16/ 17 1017.9S   4/ 6
NORTHPORT PIER   1940   64     220/  5/ 13 1017.3S
KEWAUNEE LAKESHO 1954   66     260/  7/ 14 1017.9F
SHEBOYGAN LAKESH 2000   67     250/  3/  5 1019.2F
PORT WASHINGTON  1930   60     190/  8/ 10 1021.0F
ATWATER BUOY     1909   57 54  150/ 12/ 14 1020.6F
MILWAUKEE LAKESH 2000   57     150/ 14/ 16   N/A
S MID LAKE BUOY  1950   59 61  260/  6/  6 1021.8F   1/ 4
KENOSHA   LAKESH 2000   59     180/ 10/ 11 1021.0
$$

TC  - TEMPERATURE IN CELSIUS
VSB - VISIBILITY IN STATUTE MILES
WCI - WIND CHILL INDEX
HX  - HEAT INDEX





USA.gov is the U.S. government's official web portal to all federal, state and local government web resources and services.